Location: Haliburton Scout Reserve
(45.0900°N, 78.3200°W)
Time: 15:19:38
(UTC-04:00)

Courier 1B Rocket - Pass Details

Date: 15 February 2023
Orbit: 920 x 1202 km, 28.2° (Epoch: 27 March)

Event Time Altitude Azimuth Distance (km) Brightness Sun altitude
Rises 14:59:42 0° 247° (WSW) 3,861 9.2 22.9°
Reaches altitude 10° 15:03:42 10° 227° (SW) 2,842 9.5 22.4°
Maximum altitude 15:07:35 16° 193° (SSW) 2,379 8.3 21.9°
Drops below altitude 10° 15:11:20 10° 158° (SSE) 2,726 7.7 21.5°
Sets 15:15:03 0° 137° (SE) 3,625 8.0 21.0°
